Temperature
29 29 27 27 27 27 28 27 26 24 24 23 22 21 21 20 20 20 19 19 18 17 17 16 15 15 15 14 14 14 14 14 14 14 15 15 15 16 16 16 16 17 17 17
28 27 27 28 28 28 28 27 26 24 23 24 22 21 21 20 20 19 19 18 18 17 16 16 15 14 14 14 14 14 13 14 14 14 14 14 14 15 15 16 16 16 16 16
27 26 27 27 27 27 27 26 25 24 23 23 22 21 20 20 20 19 19 18 17 17 16 15 15 14 14 13 13 13 13 13 13 13 14 14 14 14 15 15 15 16 16 16
27 27 27 27 26 25 26 25 25 24 23 23 23 21 20 20 20 19 18 18 17 16 16 15 14 14 13 13 13 13 13 13 13 13 13 13 13 14 14 14 15 15 15 16
26 26 26 26 24 24 24 24 24 24 23 23 24 22 20 20 19 19 18 18 17 16 15 15 14 14 13 13 13 13 13 13 13 13 13 13 13 13 14 14 14 15 15 15
25 25 25 25 24 24 24 24 24 24 24 23 24 23 20 19 19 19 18 17 16 16 15 14 14 13 13 13 13 12 12 12 12 12 13 13 13 13 13 14 14 14 15 15
25 25 25 25 25 25 25 24 23 23 22 23 23 22 19 19 19 19 18 17 16 16 15 14 14 13 13 13 13 12 12 12 12 12 12 12 13 13 13 13 13 14 14 14
26 24 24 24 24 23 25 24 23 22 23 23 23 21 19 20 19 19 18 17 16 16 15 14 14 13 13 13 13 12 12 12 12 12 12 12 12 12 13 13 13 13 14 14
27 23 23 23 24 24 24 25 24 23 24 24 23 21 19 20 19 19 18 17 17 16 15 15 14 14 13 13 13 12 12 12 12 12 12 12 12 12 12 13 13 13 13 13
27 25 24 23 23 23 24 23 24 23 22 22 23 22 20 19 19 19 18 17 17 16 15 15 14 14 13 13 13 13 12 12 12 12 12 12 12 12 12 12 13 13 13 13
26 26 24 23 24 23 24 24 24 23 23 22 21 19 20 19 19 18 18 17 17 16 16 15 14 14 13 13 13 13 12 12 12 12 12 12 12 12 12 12 12 12 13 13
25 26 25 24 23 23 23 23 23 22 22 23 21 19 20 20 19 19 18 17 17 16 16 15 15 14 14 13 13 13 13 12 12 12 12 12 12 12 12 12 12 12 12 12
25 24 24 22 22 22 23 22 22 22 22 22 21 19 20 20 19 19 18 17 17 17 16 16 15 14 14 14 13 13 12 12 12 12 11 11 11 11 11 12 12 12 12 12
22 24 24 23 23 23 23 22 22 21 22 22 22 20 20 20 19 19 18 18 17 17 16 16 15 15 14 14 13 13 12 12 12 11 11 11 11 11 11 11 12 12 12 12
24 24 25 24 23 23 23 22 22 21 21 21 21 21 21 20 20 19 18 18 17 17 17 16 15 15 15 14 13 13 13 12 12 11 11 11 11 11 11 11 11 11 11 11
24 24 24 24 23 23 23 23 22 22 22 21 21 21 22 20 20 19 19 18 18 17 17 16 16 15 15 15 14 13 13 12 12 11 11 11 11 11 11 11 11 11 11 11
25 24 24 24 24 23 23 24 23 22 22 22 21 22 21 21 20 20 19 18 18 17 16 16 16 15 15 15 14 14 13 13 12 11 11 11 11 11 11 11 11 11 11 11
25 24 24 24 24 23 24 25 24 23 23 23 23 22 22 21 20 19 19 19 18 17 16 16 15 15 15 15 14 14 13 13 12 11 11 11 11 11 11 11 11 11 11 11
24 24 23 24 24 25 23 24 24 23 23 24 23 22 22 21 20 19 19 18 18 17 16 16 15 15 15 14 14 14 14 13 12 11 11 11 11 11 11 11 11 10 11 11
23 23 22 23 23 24 24 24 24 23 22 24 23 23 22 21 19 20 19 18 18 17 16 16 15 15 15 14 14 14 14 13 12 11 11 11 11 11 11 11 10 10 10 10
22 22 22 22 23 25 24 23 23 22 23 24 23 23 22 21 20 20 19 18 17 17 16 16 15 15 15 14 14 14 13 13 12 11 11 11 11 11 11 11 11 10 10 10
24 24 24 23 23 24 23 22 23 24 24 23 23 22 22 21 20 20 19 18 17 17 16 16 15 15 15 14 14 14 13 13 12 11 11 11 11 11 11 11 11 11 10 10
25 26 25 25 25 24 23 23 24 24 24 23 23 22 21 21 20 19 19 18 17 17 16 16 16 15 15 14 14 14 13 13 12 12 12 11 11 11 11 11 11 11 11 10
27 27 25 25 25 25 24 24 24 23 23 23 22 22 21 21 20 19 19 18 18 17 16 16 16 16 15 15 14 14 13 13 13 12 12 12 11 11 11 11 11 11 11 11
26 25 25 25 25 25 25 24 23 23 22 22 22 21 21 20 20 19 19 18 18 17 17 16 16 16 16 15 14 14 14 13 13 13 13 12 12 11 11 11 11 11 11 11
27 26 24 24 26 26 26 24 23 23 22 22 21 21 20 20 20 19 19 19 18 18 17 16 16 16 16 15 15 14 14 14 13 13 13 13 12 12 11 11 11 11 11 11
Wind_Speed
4 2 3 5 5 7 8 7 1 8 5 3 5 6 5 4 6 7 8 10 11 12 12 11 11 11 11 11 11 10 10 9 8 7 6 5 5 5 5 4 5 6 7 7
5 3 5 4 4 7 8 7 3 7 4 1 3 5 6 4 5 6 8 9 11 11 11 11 11 11 11 11 11 11 11 9 8 7 6 5 5 5 5 4 4 5 5 5
5 6 3 3 5 8 6 6 6 1 3 3 4 4 7 6 5 6 8 9 10 10 12 11 11 11 11 12 12 12 11 11 9 9 6 6 5 4 4 5 4 4 4 3
6 3 1 2 4 8 6 6 4 3 4 5 6 2 7 5 5 7 8 9 9 10 10 10 10 11 11 11 11 11 12 11 10 9 7 7 6 5 6 5 4 4 3 3
6 4 3 3 5 6 4 4 5 6 8 7 6 3 7 5 5 7 8 8 9 9 10 10 10 10 11 11 10 10 11 11 11 10 9 7 6 6 5 5 5 4 3 2
7 5 5 4 1 2 3 6 8 8 8 7 2 2 6 4 7 7 8 8 8 8 9 9 9 8 9 9 9 10 10 10 10 10 9 8 8 8 8 7 5 4 3 3
7 6 4 1 4 5 5 7 5 5 6 1 3 2 6 6 5 6 6 7 7 7 7 8 9 8 9 9 10 10 10 10 10 11 10 9 9 8 7 7 6 5 3 3
8 7 4 4 5 5 5 5 6 6 4 2 3 4 7 6 4 3 5 6 7 7 6 7 8 8 8 9 9 10 10 10 10 10 10 9 9 6 5 6 5 5 4 4
5 7 5 3 3 5 6 4 4 6 9 5 4 8 7 5 4 4 5 6 6 6 7 7 7 7 8 8 8 9 9 9 10 10 10 9 9 7 7 7 6 5 4 4
6 4 6 3 4 4 3 6 5 5 6 4 2 5 4 4 4 5 5 6 6 6 6 6 6 7 7 6 7 7 8 8 9 9 9 9 8 8 8 7 8 7 6 6
5 3 6 5 1 3 3 3 3 5 2 4 3 4 5 4 3 3 5 6 5 5 5 4 4 5 5 6 6 6 7 8 8 9 8 9 9 8 8 8 8 8 7 7
2 4 3 5 5 2 2 5 5 5 5 2 2 3 5 4 3 3 4 4 5 4 4 4 4 4 5 5 6 6 7 7 7 8 8 8 9 9 9 9 9 8 8 7
3 4 2 5 4 4 3 0 3 5 5 3 2 4 5 4 3 3 2 2 3 4 4 4 4 4 4 5 6 6 7 7 6 7 8 9 9 10 9 9 9 9 9 9
4 4 3 5 5 2 2 2 2 5 4 3 1 4 5 4 3 3 1 1 2 3 4 5 4 4 3 4 5 6 6 6 7 7 8 9 9 9 9 9 9 10 9 9
4 4 1 2 1 1 2 3 4 5 5 4 3 1 2 4 3 2 2 1 2 3 5 5 4 4 3 4 5 5 5 6 7 7 8 8 9 9 8 9 9 9 9 10
4 3 1 3 4 4 6 7 7 7 6 6 4 3 5 6 4 3 3 2 1 3 4 5 5 5 5 4 4 4 5 5 6 7 7 7 8 8 8 8 9 9 9 9
4 4 4 4 6 5 8 9 11 8 6 6 6 3 8 7 5 3 2 2 2 2 3 4 5 5 5 5 5 5 5 6 7 7 7 7 8 8 8 9 8 8 8 8
3 3 3 5 4 5 3 4 5 8 9 8 5 4 7 6 5 4 3 2 3 3 3 4 4 4 4 4 4 4 5 6 7 6 7 7 7 8 8 8 8 7 7 7
5 3 4 4 6 4 6 5 5 6 7 10 9 8 8 7 6 6 6 4 3 4 4 3 2 2 3 4 4 4 5 6 6 6 6 6 6 7 7 8 8 7 6 6
4 4 4 4 4 3 6 8 6 3 5 9 11 10 10 10 7 6 9 7 5 5 4 2 1 2 3 3 3 3 6 7 6 5 5 5 5 5 6 7 6 5 5 5
5 5 6 6 6 2 8 9 7 3 2 5 9 10 12 11 5 7 10 8 7 5 4 1 1 1 2 3 3 4 6 6 5 5 4 4 4 4 5 5 5 5 5 5
6 5 6 5 5 1 11 9 6 3 4 4 6 9 10 8 8 8 9 8 7 6 5 2 1 0 1 2 2 3 4 4 4 3 3 3 4 4 5 4 5 5 5 5
4 4 2 2 1 6 8 7 6 3 1 4 6 7 9 9 9 9 9 9 8 7 6 4 3 2 2 2 1 2 3 3 2 2 1 1 2 2 3 4 5 5 5 5
5 3 3 4 4 5 10 9 7 6 4 4 6 7 9 9 9 9 9 9 8 7 6 5 5 4 3 3 2 2 2 2 2 2 2 2 2 3 4 4 4 5 5 5
2 3 4 6 7 5 6 9 9 7 6 6 6 7 9 9 10 10 9 9 8 8 6 5 5 4 3 4 4 4 3 2 3 3 3 3 3 2 2 3 2 3 4 3
8 7 6 5 4 2 2 6 8 9 9 8 8 9 9 9 9 10 9 8 8 8 8 7 6 5 4 4 4 5 4 3 4 1 1 2 3 3 2 2 2 3 2 3
Wind_Direction
209 236 48 22 357 322 316 310 29 104 100 100 119 120 105 64 48 24 20 18 17 10 5 17 11 7 1 358 355 349 347 344 340 331 321 313 306 304 296 284 280 274 263 253
185 106 49 3 332 310 304 309 84 109 104 311 159 142 122 87 61 41 23 21 17 6 0 10 10 7 2 360 356 348 346 343 339 327 319 303 297 295 288 283 280 278 265 253
94 76 43 330 345 335 320 354 358 69 141 227 230 184 146 127 83 54 33 28 18 9 6 7 7 4 3 2 356 349 348 348 343 336 331 325 316 312 306 299 289 280 279 262
92 90 341 313 24 343 342 34 341 291 244 222 211 223 146 129 81 46 32 26 21 15 8 6 7 3 1 1 356 352 352 351 348 345 343 337 331 320 311 313 308 306 295 281
99 54 7 12 30 341 359 332 282 260 255 263 225 258 134 125 53 34 27 22 21 14 7 7 9 4 359 359 358 357 354 355 353 351 350 347 340 327 320 319 315 314 312 297
102 78 37 29 37 291 291 259 245 242 252 252 200 273 102 63 33 14 15 19 20 13 10 7 8 7 358 359 1 358 360 355 353 353 356 356 346 340 337 333 327 322 315 312
154 134 113 350 285 211 264 293 274 231 217 142 77 80 84 73 49 17 12 18 15 19 17 10 8 6 359 0 2 358 1 358 357 356 359 357 352 344 340 337 336 334 331 328
198 144 108 50 360 332 309 299 317 318 331 102 149 87 104 94 84 39 31 32 22 21 16 15 11 4 358 0 2 1 2 3 1 359 358 356 355 348 341 344 349 354 347 334
339 103 106 69 4 320 314 330 341 301 289 278 131 119 128 123 80 42 29 28 23 16 15 16 11 6 3 3 5 5 5 6 4 2 360 2 2 359 357 358 359 358 353 348
321 106 126 128 225 202 307 323 300 289 334 323 111 107 105 87 45 22 23 25 19 15 16 17 13 7 6 5 5 5 9 9 4 4 5 7 3 4 4 7 6 3 359 358
300 241 147 186 254 12 311 270 314 296 284 321 352 76 74 82 67 25 25 27 16 13 15 16 16 10 7 10 9 6 14 13 8 7 5 5 4 10 14 13 6 5 4 5
325 299 161 122 90 49 334 342 333 325 345 322 307 107 99 102 102 68 41 23 12 8 18 28 21 16 9 10 11 15 18 17 13 8 8 7 8 15 17 15 9 9 9 9
347 285 197 156 156 183 201 122 315 307 287 290 330 118 136 136 116 92 59 23 16 6 19 35 24 22 10 14 20 20 21 18 18 16 13 12 16 15 14 14 14 13 13 16
323 278 339 9 30 111 172 178 249 284 298 328 49 120 159 155 138 125 110 42 31 20 23 36 25 25 18 29 30 22 18 20 27 28 21 17 18 16 16 15 17 17 16 21
264 283 60 73 30 334 267 236 230 257 294 317 19 35 155 136 142 146 155 95 25 30 24 31 31 23 27 45 39 30 24 30 36 38 29 18 18 19 18 17 20 21 20 24
244 289 236 213 201 240 254 238 231 240 252 262 270 258 125 129 155 178 164 130 62 40 29 24 26 20 21 43 51 42 39 40 45 45 33 19 21 19 16 20 22 21 22 24
212 256 284 259 171 246 257 221 212 218 219 231 243 197 142 163 179 184 157 149 121 70 45 33 21 20 14 29 44 45 46 49 49 44 39 27 25 21 16 18 22 23 26 27
287 273 278 283 222 262 101 101 175 214 225 220 228 162 163 174 164 171 178 165 128 104 72 51 20 8 3 25 38 47 66 63 57 43 38 36 28 21 16 16 18 22 26 30
319 291 280 283 294 269 144 158 172 208 239 217 213 192 177 167 176 192 177 152 116 103 90 70 354 343 17 23 19 26 59 66 59 47 43 38 30 22 19 16 14 18 23 28
262 277 276 289 286 311 109 130 144 203 260 204 194 189 178 179 208 190 161 155 144 123 113 107 294 6 30 19 5 25 59 63 54 45 48 41 32 28 25 15 11 14 22 26
195 215 234 265 275 302 118 129 146 211 2 137 177 181 181 194 204 146 150 150 142 138 137 170 282 35 23 360 3 43 62 66 60 47 45 35 25 37 39 16 7 14 20 28
210 214 210 221 251 235 138 153 195 234 113 162 183 180 182 178 154 141 141 141 148 154 160 179 261 11 57 12 7 68 80 86 92 80 64 50 38 28 32 17 11 16 17 29
224 272 307 265 347 119 173 198 226 274 224 178 190 183 177 176 167 159 157 159 166 170 168 174 217 234 186 135 36 70 107 107 123 131 126 105 88 75 35 15 21 21 21 28
195 214 276 290 274 199 202 221 227 232 235 202 193 185 181 184 177 173 176 175 172 174 172 178 212 230 192 152 150 127 123 170 208 190 169 136 82 70 61 34 28 38 27 22
347 154 240 259 267 254 211 211 221 218 216 211 200 193 191 190 189 184 188 185 176 171 171 180 209 227 206 172 173 158 167 230 242 218 180 144 126 107 85 87 51 55 71 66
259 227 224 253 285 280 260 192 206 213 210 210 206 202 197 196 196 192 193 186 176 173 171 183 207 224 219 188 181 164 167 232 263 271 92 117 143 147 162 156 133 66 93 116
Height
1518 1520 1526 1526 1525 1525 1524 1527 1533 1539 1540 1542 1547 1553 1556 1558 1558 1559 1558 1558 1557 1557 1555 1552 1550 1547 1544 1541 1538 1535 1531 1528 1525 1522 1520 1518 1517 1516 1515 1515 1515 1515 1515 1516
1520 1525 1526 1525 1525 1524 1524 1528 1532 1539 1540 1542 1546 1551 1554 1557 1558 1560 1559 1559 1558 1557 1555 1553 1550 1547 1543 1540 1536 1533 1530 1526 1523 1520 1518 1516 1514 1513 1512 1511 1511 1511 1511 1511
1522 1529 1527 1526 1527 1528 1527 1532 1535 1539 1541 1543 1546 1552 1554 1556 1557 1559 1559 1559 1558 1557 1555 1553 1550 1546 1543 1539 1535 1532 1528 1525 1521 1519 1516 1513 1511 1510 1509 1508 1508 1507 1507 1507
1525 1528 1528 1528 1531 1534 1534 1535 1536 1538 1544 1544 1545 1557 1555 1554 1556 1558 1559 1559 1559 1557 1555 1553 1549 1546 1543 1539 1535 1531 1527 1523 1520 1517 1514 1512 1510 1508 1507 1506 1505 1504 1504 1504
1529 1529 1530 1533 1537 1538 1537 1536 1536 1536 1539 1542 1539 1547 1557 1553 1557 1558 1559 1559 1559 1557 1555 1553 1550 1546 1543 1539 1535 1530 1526 1523 1519 1516 1513 1511 1508 1506 1504 1503 1502 1502 1501 1501
1531 1533 1535 1536 1537 1538 1536 1535 1534 1534 1536 1547 1538 1545 1558 1556 1559 1559 1559 1559 1558 1557 1555 1552 1550 1546 1542 1539 1534 1530 1526 1522 1519 1516 1513 1510 1507 1505 1503 1502 1500 1499 1499 1499
1533 1533 1536 1537 1536 1534 1534 1539 1545 1546 1549 1546 1538 1544 1560 1557 1557 1559 1559 1559 1558 1556 1554 1552 1549 1546 1542 1538 1534 1530 1526 1523 1519 1516 1513 1510 1507 1505 1503 1501 1499 1498 1497 1496
1527 1537 1536 1537 1539 1540 1535 1538 1550 1557 1547 1545 1540 1548 1557 1554 1557 1558 1558 1558 1558 1556 1554 1552 1549 1546 1543 1539 1535 1531 1527 1523 1520 1516 1513 1510 1507 1504 1502 1501 1499 1498 1496 1495
1522 1540 1539 1540 1540 1539 1538 1534 1535 1544 1537 1540 1539 1548 1555 1553 1555 1557 1557 1557 1557 1556 1554 1552 1549 1546 1543 1540 1536 1532 1528 1524 1521 1518 1514 1510 1507 1505 1503 1501 1499 1497 1496 1494
1521 1533 1537 1539 1541 1540 1539 1539 1538 1542 1550 1551 1543 1546 1554 1555 1555 1556 1556 1557 1557 1556 1554 1552 1549 1547 1544 1540 1537 1533 1529 1526 1523 1519 1516 1512 1509 1506 1504 1502 1499 1498 1496 1494
1524 1529 1539 1539 1538 1540 1539 1538 1538 1539 1542 1555 1558 1562 1550 1553 1555 1556 1556 1557 1556 1555 1554 1552 1549 1547 1544 1541 1538 1534 1531 1527 1524 1521 1517 1514 1511 1508 1505 1503 1501 1498 1496 1494
1528 1528 1532 1536 1539 1540 1541 1542 1543 1550 1546 1543 1552 1563 1550 1552 1554 1555 1556 1557 1556 1555 1553 1551 1550 1547 1545 1542 1539 1535 1532 1529 1526 1522 1519 1516 1513 1510 1507 1505 1502 1500 1498 1496
1530 1533 1539 1546 1548 1545 1542 1543 1544 1545 1545 1545 1552 1560 1550 1551 1552 1554 1555 1556 1555 1554 1553 1551 1550 1547 1545 1542 1540 1537 1534 1530 1527 1524 1521 1518 1515 1512 1510 1507 1505 1503 1500 1498
1536 1532 1538 1548 1544 1539 1541 1543 1545 1547 1548 1546 1546 1550 1549 1549 1551 1553 1554 1554 1554 1554 1553 1551 1550 1548 1546 1543 1541 1538 1535 1532 1529 1526 1523 1520 1517 1515 1512 1509 1507 1505 1502 1500
1535 1532 1532 1536 1537 1537 1539 1541 1543 1546 1545 1547 1545 1545 1544 1546 1549 1551 1552 1553 1553 1553 1552 1551 1550 1548 1546 1544 1542 1539 1537 1534 1531 1528 1525 1522 1520 1517 1515 1512 1510 1507 1505 1503
1534 1533 1533 1536 1536 1537 1539 1538 1540 1542 1542 1543 1543 1543 1541 1545 1548 1549 1551 1552 1552 1552 1552 1551 1550 1548 1547 1545 1542 1540 1538 1536 1533 1530 1527 1525 1522 1520 1517 1515 1512 1510 1508 1506
1530 1532 1536 1534 1533 1537 1537 1529 1534 1537 1536 1539 1542 1540 1540 1544 1546 1548 1549 1550 1551 1552 1552 1551 1550 1549 1547 1546 1543 1541 1539 1537 1534 1532 1529 1527 1524 1522 1520 1517 1515 1513 1511 1509
1529 1532 1534 1534 1535 1544 1532 1521 1524 1529 1531 1532 1534 1535 1538 1541 1544 1547 1548 1549 1550 1551 1551 1551 1550 1549 1548 1546 1544 1542 1540 1538 1535 1533 1531 1529 1526 1524 1522 1520 1517 1515 1514 1512
1532 1534 1536 1533 1536 1527 1528 1523 1525 1530 1530 1528 1530 1533 1537 1540 1543 1545 1546 1548 1549 1550 1550 1550 1549 1549 1548 1546 1545 1543 1541 1539 1537 1535 1533 1531 1528 1526 1524 1522 1520 1518 1517 1515
1536 1535 1539 1536 1542 1536 1526 1521 1523 1529 1531 1522 1525 1530 1534 1538 1542 1542 1543 1546 1548 1549 1549 1549 1549 1548 1548 1547 1545 1544 1542 1540 1538 1536 1534 1532 1530 1529 1526 1524 1523 1521 1519 1518
1538 1537 1541 1542 1539 1523 1521 1522 1526 1536 1528 1520 1523 1527 1531 1534 1537 1539 1541 1544 1546 1547 1548 1548 1548 1548 1547 1546 1545 1544 1542 1541 1539 1537 1536 1534 1532 1531 1529 1527 1525 1524 1522 1521
1527 1528 1530 1532 1537 1531 1521 1523 1525 1524 1521 1522 1523 1525 1529 1533 1536 1538 1540 1542 1544 1546 1546 1547 1547 1547 1546 1546 1545 1544 1542 1541 1540 1538 1537 1536 1534 1533 1531 1530 1528 1526 1525 1524
1518 1517 1518 1520 1523 1518 1518 1519 1519 1519 1520 1521 1522 1525 1527 1531 1533 1536 1539 1541 1543 1544 1545 1545 1546 1546 1546 1545 1545 1544 1543 1542 1541 1540 1538 1537 1536 1534 1533 1532 1530 1528 1527 1526
1510 1512 1516 1517 1513 1513 1514 1515 1517 1518 1518 1520 1521 1523 1525 1528 1531 1534 1537 1539 1540 1542 1543 1544 1544 1545 1545 1544 1544 1543 1542 1541 1541 1540 1539 1538 1537 1536 1534 1533 1532 1530 1529 1527
1510 1512 1514 1515 1512 1511 1510 1511 1513 1515 1516 1518 1519 1521 1523 1526 1528 1531 1534 1536 1538 1539 1541 1541 1542 1543 1543 1543 1542 1542 1541 1541 1541 1540 1540 1539 1538 1537 1535 1534 1533 1532 1531 1529
1509 1510 1514 1513 1507 1507 1507 1508 1509 1511 1513 1515 1517 1518 1520 1523 1525 1528 1530 1532 1534 1536 1537 1539 1540 1541 1541 1541 1541 1540 1540 1540 1540 1540 1540 1539 1538 1537 1536 1535 1534 1533 1532 1531